STARLINK-5964 (56009 NORAD) Tracking and Keplerian Element Data

This shows tracking and keplerian element data for the satellite.

Feedback or suggestion? Click here.




ElementValue
Catalog56009
NameSTARLINK-5964
Epoch Orbit712
Epoch Day127.00001157
Epoch Year2023
RAAN297.4978
Inclination43.0003
Eccentricity0.0001517
Argument of Perigee271.7301
Mean Anonmoly358.766
Mean Motion15.38173526
Decay Rate-0.00922419
L11 56009U 23042Z 23127.00001157 -.00922419 00000+0 -26171-1 0 9996
L22 56009 43.0003 297.4978 0001517 271.7301 358.7660 15.38173526 7129



Live tracking and technical data element details for STARLINK-5964 (NORAD 56009). STARLINK-5964 can be tracked NOW for your location showing map with azimuth and elevation plus other details from your city location.







IsCatalogInMostPopularTable: catalog: 56009, numindb: -1

Insert: records affected: 1


GetName: 56009 STARLINK-5964

Hit Count: inserted at: Mon, 05 Jun 2023 00:34:18 GMT